Terug naar catalogus

STARLINK-36587

ActiefCommunicatieSSO
NORAD 67532·PAYLOAD·🇺🇸 United States

Gelanceerd Jan 22, 2026 vanaf Vandenberg Space Force Base

Loading…

Volgende Passages (komende 24 uur)

TLE

VersSource: CelesTrak SupGP

Epoch: Sep 14, 2026, 21:23 UTC

1 67532C 26014A   26257.89145833 -.00023123  00000+0 -71801-3 0  2578
2 67532  97.2848 143.3726 0001813  89.4188 180.0619 15.33440834    11

Volg STARLINK-36587 in realtime met AllMySat

Download on the App Store